Simultaneous Nadir Overpasses (SNOs) Predictions

Prediction of SNOs between GOES-16 and NOAA-20 Satellite Orbit:

Table of predicted SNOs for the next 14.0 days since TLE Epoch: 11/2/2018
Index Date Time (GOES-16) GOES-16 Lat,Lon NOAA-20 Lat,Lon Distance(km) Time Diff (sec)
1 11/03/2018 18:38:46 0.00, -75.20 -0.80, -78.78 408.61 80
2 11/04/2018 18:22:41 0.00, -75.20 0.23, -74.25 107.96 80
3 11/06/2018 06:44:28 -0.00, -75.20 0.97, -79.52 492.30 80
4 11/07/2018 06:23:04 -0.00, -75.20 -0.06, -74.99 24.60 80
5 11/09/2018 18:26:15 0.00, -75.22 -0.14, -75.75 61.41 80
6 11/10/2018 18:10:10 0.00, -75.22 0.89, -71.22 456.01 80
7 11/12/2018 06:31:58 0.00, -75.24 0.30, -76.49 143.04 80
8 11/13/2018 06:10:33 0.00, -75.25 -0.73, -71.96 374.62 80
9 11/14/2018 18:32:29 -0.00, -75.26 -0.44, -77.26 227.46 80
10 11/15/2018 18:16:25 0.00, -75.28 0.59, -72.73 290.57 80




NCC Satellite Simultaneous Nadir Overpasses (SNOs) Prediction Service
